Starlink 11652

operational
NORAD ID: 63315 Int'l Des: 2025-057 Owner: SPXS Country: US Constellation: starlink
LEOCIRCULAR

About Starlink 11652

Description loading...

Live Position

Loading 3D Globe...

Upcoming Passes

Altitude History

Altitude vs Time

uPlot chart will show altitude changes over time

Two-Line Element Set

1 63315U 25057J 25347.63438433 .00108104 00000-0 83478-3 0 9999
2 63315 43.0002 63.2154 0001533 261.0197 99.0497 15.70847960 43673
Epoch: Dec 13, 2025 • Age: 17 hours

Current Status

Altitude 356.0 km
Velocity 7.70 km/s
Sub-Earth Point 21.88°N, 0.72°E
Launch Date Mar 18, 2025
Age 0.7 years
Type internet

Technical Details

Classification Payload
Mass 960.00 kg
Dry Mass 910.00 kg
Total Mass 960.00 kg
Length 0.30 m
Diameter 4.10 m
Span 29.00 m
Shape Box + pan
Manufacturer SPXS
Bus Type Starlink V2MD
Phase Status In Orbit
Owner/State SPXS/US

Large Constellations

Loading constellations...